Weather in Suzak

Uzbekistan     40°44′22″N   72°00′23″E
temp.,
°C
wind,
m/s
gust,
m/s
humid.,
%
clouds,
%
prec.,
mm/h
press.,
hPa
HPBL,
m
4 march, thu
thu423:00+8ne3579100 0.0 1025166
02:00+7ne348191 0.0 102498
05:00+6nne118394 0.0 102322
08:00+7nne117499 0.0 102356
11:00+11nne344899 0.0 1020641
14:00+14wnw2235100 0.0 10181087
17:00+14s5541100 0.0 10201174
20:00+12sse1253100 0.0 102394
5 march, fri
fri523:00+10ene3569100 0.3 1023349
02:00+10e246798 0.1 1023231
05:00+9ssw3107299 0.1 10251078
08:00+8w5956100 0.0 1027902
11:00+11w244294 0.0 10271340
14:00+13e223322 0.0 10251690
17:00+13ene333734 0.0 10261214
20:00+10ne585282 0.0 1028346
6 march, sat
sat623:00+8nne375541 0.0 1028192
02:00+6nne34490 0.0 102681
05:00+5nne335421 0.0 102454
08:00+7ene344838 0.0 1021156
11:00+12ne332869 0.0 1015528
14:00+15n1121100 0.0 1011766
17:00+14wsw1122100 0.0 1012633
20:00+12wnw2331100 0.0 101475
7 march, sun
sun723:00+11wsw2237100 0.0 101646
02:00+10nnw1244100 0.0 101635
05:00+8nnw1263100 0.1 101848
08:00+8wsw3564100 0.0 1019255
11:00+11wsw1154100 0.0 1018901
14:00+14w0142100 0.0 10171495
17:00+13sw014296 0.1 10181528
20:00+12w1251100 0.0 1021331
8 march, mon
mon823:00+10nnw126075 0.0 102126
02:00+8n11650 0.0 102127
05:00+7ne11670 0.0 102224
08:00+8ene116220 0.0 102279
11:00+13ene114560 0.0 1020612
14:00+15nne1035100 0.0 10201038
17:00+15wnw1135100 0.0 10211216
20:00+13ne1141100 0.0 102422